Weather History for Eagle River, WI

Change the Weather History Date:

Wednesday, October 10, 2012

  Actual Average Record
Temperature  
Mean Temperature 34 °F -  
Max Temperature 41 °F 51 °F 75 °F (2011)
Min Temperature 28 °F 31 °F 24 °F (2000)
Degree Days  
Heating Degree Days 30    
Moisture  
Dew Point 23 °F    
Average Humidity 68    
Maximum Humidity 87    
Minimum Humidity 36    
Precipitation  
Precipitation 0.00 in - - ()
Sea Level Pressure  
Sea Level Pressure 29.90 in    
Wind  
Wind Speed 10 mph (WNW)    
Max Wind Speed 18 mph    
Max Gust Speed 28 mph    
Visibility 10 miles    
Events      
Averages and records for this station are not official NWS values.
T = Trace of Precipitation, MM = Missing Value Source: NWS Daily Summary

Daily Weather History Graph

Daily Weather History Graph

Search for Another Location

Airport:

Trip Planner

Search our weather history database for the weather conditions in past years. The results will help you decide how hot, cold, wet, or windy it might be!

Date:

Astronomy

Oct. 10, 2012 Rise Set
Actual Time 7:07 AM CDT 6:19 PM CDT
Civil Twilight 6:37 AM CDT 6:49 PM CDT
Nautical Twilight 6:03 AM CDT 7:23 PM CDT
Astronomical Twilight 5:28 AM CDT 7:58 PM CDT
Moon 1:28 AM CDT (10/10) 3:35 PM CDT (10/10)
Length of Visible Light 12h 11m
Length of Day
11h 11m
Waning Crescent, 27% of the Moon is Illuminated
Oct 10
Waning Crescent
Oct 15
New
Oct 21
First Quarter
Oct 29
Full
Nov 6
Last Quarter

Hourly Weather History & Observations

Time (CDT) Temp. Windchill Dew Point Humidity Pressure Visibility Wind Dir Wind Speed Gust Speed Precip Events Conditions
12:15 AM 35.6 °F 28.0 °F 30.2 °F 81% 29.76 in 10.0 mi West 10.4 mph - N/A   Overcast
12:35 AM 33.8 °F 26.4 °F 30.2 °F 87% 29.77 in 10.0 mi West 9.2 mph 19.6 mph N/A   Mostly Cloudy
12:55 AM 33.8 °F 25.8 °F 30.2 °F 87% 29.77 in 10.0 mi WNW 10.4 mph 16.1 mph N/A   Mostly Cloudy
1:15 AM 33.8 °F 25.8 °F 30.2 °F 87% 29.78 in 10.0 mi West 10.4 mph - N/A   Overcast
1:35 AM 33.8 °F 25.8 °F 28.4 °F 81% 29.78 in 10.0 mi West 10.4 mph 18.4 mph N/A   Mostly Cloudy
1:55 AM 33.8 °F 25.3 °F 28.4 °F 81% 29.79 in 10.0 mi WNW 11.5 mph 19.6 mph N/A   Overcast
2:15 AM 32.0 °F 24.8 °F 28.4 °F 87% 29.79 in 10.0 mi WNW 8.1 mph 16.1 mph N/A   Mostly Cloudy
2:35 AM 32.0 °F 24.8 °F 28.4 °F 87% 29.79 in 10.0 mi WNW 8.1 mph - N/A   Mostly Cloudy
2:55 AM 32.0 °F 23.6 °F 28.4 °F 87% 29.79 in 10.0 mi West 10.4 mph - N/A   Overcast
3:15 AM 32.0 °F 26.4 °F 28.4 °F 87% 29.79 in 10.0 mi WNW 5.8 mph - N/A   Overcast
3:35 AM 32.0 °F 24.2 °F 28.4 °F 87% 29.80 in 10.0 mi WNW 9.2 mph - N/A   Overcast
3:55 AM 32.0 °F 23.0 °F 28.4 °F 87% 29.81 in 10.0 mi WNW 11.5 mph - N/A   Overcast
4:15 AM 32.0 °F 23.0 °F 26.6 °F 80% 29.81 in 10.0 mi WNW 11.5 mph - N/A   Overcast
4:35 AM 32.0 °F 23.6 °F 26.6 °F 80% 29.82 in 10.0 mi WNW 10.4 mph 19.6 mph N/A   Overcast
4:55 AM 32.0 °F 24.2 °F 26.6 °F 80% 29.82 in 10.0 mi WNW 9.2 mph 19.6 mph N/A   Overcast
5:15 AM 32.0 °F 23.6 °F 26.6 °F 80% 29.83 in 10.0 mi WNW 10.4 mph 19.6 mph N/A   Overcast
5:35 AM 32.0 °F 24.2 °F 26.6 °F 80% 29.84 in 10.0 mi West 9.2 mph - N/A   Overcast
5:55 AM 32.0 °F 24.8 °F 26.6 °F 80% 29.84 in 10.0 mi WNW 8.1 mph 17.3 mph N/A   Overcast
6:15 AM 32.0 °F 24.2 °F 26.6 °F 80% 29.85 in 10.0 mi WNW 9.2 mph - N/A   Overcast
6:35 AM 32.0 °F 25.6 °F 26.6 °F 80% 29.85 in 10.0 mi WNW 6.9 mph - N/A   Overcast
6:55 AM 30.2 °F 21.9 °F 26.6 °F 86% 29.86 in 10.0 mi WNW 9.2 mph 16.1 mph N/A   Overcast
7:15 AM 30.2 °F 20.2 °F 24.8 °F 80% 29.86 in 10.0 mi West 12.7 mph 19.6 mph N/A   Scattered Clouds
7:35 AM 30.2 °F 23.4 °F 26.6 °F 86% 29.87 in 10.0 mi WNW 6.9 mph - N/A   Mostly Cloudy
7:55 AM 32.0 °F 22.5 °F 26.6 °F 80% 29.88 in 10.0 mi WNW 12.7 mph 18.4 mph N/A   Overcast
8:35 AM 32.0 °F 23.6 °F 26.6 °F 80% 29.89 in 10.0 mi WNW 10.4 mph - N/A   Overcast
8:55 AM 32.0 °F 23.0 °F 26.6 °F 80% 29.89 in 10.0 mi WNW 11.5 mph 19.6 mph N/A   Overcast
9:15 AM 32.0 °F 22.5 °F 26.6 °F 80% 29.90 in 10.0 mi WNW 12.7 mph 21.9 mph N/A   Overcast
9:35 AM 32.0 °F 21.2 °F 24.8 °F 75% 29.90 in 10.0 mi West 16.1 mph 20.7 mph N/A   Overcast
9:55 AM 33.8 °F 26.4 °F 24.8 °F 70% 29.90 in 10.0 mi WNW 9.2 mph 19.6 mph N/A   Overcast
10:15 AM 33.8 °F 23.9 °F 24.8 °F 70% 29.91 in 10.0 mi WNW 15.0 mph 20.7 mph N/A   Overcast
10:35 AM 33.8 °F 24.3 °F 23.0 °F 65% 29.92 in 10.0 mi NW 13.8 mph 19.6 mph N/A   Overcast
10:55 AM 33.8 °F 24.8 °F 21.2 °F 60% 29.93 in 10.0 mi WNW 12.7 mph 17.3 mph N/A   Overcast
11:15 AM 33.8 °F 23.9 °F 21.2 °F 60% 29.93 in 10.0 mi WNW 15.0 mph 20.7 mph N/A   Overcast
11:55 AM 35.6 °F 25.5 °F 19.4 °F 52% 29.95 in 10.0 mi NW 17.3 mph - N/A   Overcast
12:15 PM 33.8 °F 24.8 °F 19.4 °F 56% 29.95 in 10.0 mi West 12.7 mph 20.7 mph N/A   Overcast
12:35 PM 35.6 °F 26.6 °F 19.4 °F 52% 29.95 in 10.0 mi WNW 13.8 mph 21.9 mph N/A   Overcast
12:55 PM 37.4 °F 28.2 °F 19.4 °F 48% 29.95 in 10.0 mi NW 16.1 mph 21.9 mph N/A   Overcast
1:15 PM 39.2 °F 29.8 °F 19.4 °F 45% 29.95 in 10.0 mi West 18.4 mph 27.6 mph N/A   Overcast
1:35 PM 39.2 °F 30.5 °F 17.6 °F 42% 29.95 in 10.0 mi NW 16.1 mph 25.3 mph N/A   Overcast
1:55 PM 37.4 °F 28.5 °F 14.0 °F 38% 29.95 in 10.0 mi WNW 15.0 mph 26.5 mph N/A   Mostly Cloudy
2:15 PM 39.2 °F 30.5 °F 17.6 °F 42% 29.95 in 10.0 mi NNW 16.1 mph 21.9 mph N/A   Overcast
2:35 PM 39.2 °F 30.8 °F 15.8 °F 39% 29.94 in 10.0 mi West 15.0 mph 21.9 mph N/A   Overcast
2:55 PM 41.0 °F 32.5 °F 15.8 °F 36% 29.96 in 10.0 mi WNW 17.3 mph 24.2 mph N/A   Overcast
3:15 PM 37.4 °F 28.9 °F 14.0 °F 38% 29.96 in 10.0 mi WNW 13.8 mph 21.9 mph N/A   Mostly Cloudy
3:35 PM 39.2 °F 32.0 °F 14.0 °F 36% 29.96 in 10.0 mi West 11.5 mph 25.3 mph N/A   Overcast
3:55 PM 39.2 °F 32.5 °F 17.6 °F 42% 29.95 in 10.0 mi NW 10.4 mph 16.1 mph N/A   Overcast
4:15 PM 39.2 °F 32.0 °F 17.6 °F 42% 29.96 in 10.0 mi West 11.5 mph 17.3 mph N/A   Overcast
4:35 PM 41.0 °F 33.9 °F 17.6 °F 39% 29.96 in 10.0 mi WNW 12.7 mph 19.6 mph N/A   Mostly Cloudy
4:55 PM 41.0 °F 35.2 °F 17.6 °F 39% 29.95 in 10.0 mi West 9.2 mph 19.6 mph N/A   Mostly Cloudy
5:15 PM 39.2 °F 32.5 °F 19.4 °F 45% 29.96 in 10.0 mi West 10.4 mph - N/A   Scattered Clouds
5:35 PM 37.4 °F 30.8 °F 19.4 °F 48% 29.96 in 10.0 mi West 9.2 mph - N/A   Scattered Clouds
5:55 PM 37.4 °F 32.8 °F 19.4 °F 48% 29.97 in 10.0 mi West 5.8 mph - N/A   Scattered Clouds
6:35 PM 33.8 °F - 21.2 °F 60% 29.97 in 10.0 mi Calm Calm - N/A   Mostly Cloudy
6:55 PM 32.0 °F - 23.0 °F 69% 29.97 in 10.0 mi Calm Calm - N/A   Mostly Cloudy
7:15 PM 32.0 °F - 23.0 °F 69% 29.97 in 10.0 mi Calm Calm - N/A   Scattered Clouds
7:35 PM 30.2 °F - 23.0 °F 75% 29.97 in 10.0 mi Calm Calm - N/A   Clear
7:55 PM 30.2 °F - 23.0 °F 75% 29.97 in 10.0 mi Calm Calm - N/A   Clear
8:15 PM 30.2 °F - 23.0 °F 75% 29.98 in 10.0 mi Calm Calm - N/A   Clear
8:35 PM 30.2 °F - 23.0 °F 75% 29.97 in 10.0 mi Calm Calm - N/A   Mostly Cloudy
8:55 PM 30.2 °F - 23.0 °F 75% 29.97 in 10.0 mi Calm Calm - N/A   Overcast
9:15 PM 28.4 °F - 23.0 °F 80% 29.97 in 10.0 mi Calm Calm - N/A   Scattered Clouds
9:35 PM 28.4 °F 24.6 °F 24.8 °F 86% 29.97 in 10.0 mi SSW 3.5 mph - N/A   Mostly Cloudy
9:55 PM 30.2 °F - 23.0 °F 75% 29.97 in 10.0 mi Calm Calm - N/A   Scattered Clouds
10:15 PM 32.0 °F - 24.8 °F 75% 29.96 in 10.0 mi Calm Calm - N/A   Clear
10:35 PM 32.0 °F - 23.0 °F 69% 29.96 in 10.0 mi Calm Calm - N/A   Scattered Clouds
10:55 PM 32.0 °F - 23.0 °F 69% 29.96 in 10.0 mi Calm Calm - N/A   Overcast
11:15 PM 33.8 °F - 23.0 °F 65% 29.96 in 10.0 mi Calm Calm - N/A   Overcast
11:35 PM 33.8 °F - 24.8 °F 70% 29.95 in 10.0 mi Calm Calm - N/A   Overcast
11:55 PM 35.6 °F 30.7 °F 24.8 °F 65% 29.95 in 10.0 mi WSW 5.8 mph - N/A   Overcast